468  
ASUS43 KLMK 230802  
RWRKY  
KENTUCKY REGIONAL WEATHER ROUNDUP  
NATIONAL WEATHER SERVICE LOUISVILLE KY  
400 AM EDT WED AUG 23 2017  
 
NOTE "FAIR" INDICATES FEW OR NO CLOUDS BELOW 12,000 FEET  
WITH NO SIGNIFICANT WEATHER AND/OR S TO VISIBILITY
.  
 
KYZ001>023-026-027-061>063-070>075-230900-  
WESTERN AND SOUTH CENTRAL KENTUCKY  
 
CITY SKY/WX TMP DP RH WIND PRES REMARKS
 
PADUCAH CLEAR 69 63 81 CALM 30.02S  
HENDERSON NOT AVBL  
OWENSBORO CLEAR 66 64 93 NW5 30.02S  
HOPKINSVILLE MOCLDY 70 70 100 NW5 30.01S  
BOWLING GREEN PTCLDY 72 71 97 CALM 30.00S  
GLASGOW CLOUDY 70 70 100 N6 30.00S  

 
 
KYZ024-025-028>034-038-045-046-053-230900-  
NORTH CENTRAL KENTUCKY  
 
CITY SKY/WX TMP DP RH WIND PRES REMARKS
 
LOUISVILLE/SDF MOCLDY 71 63 75 NW8 29.99R  
LOUISVILLE/LOU CLOUDY 69 67 93 CALM 29.99S  
FORT KNOX CLEAR 66 66 100 NW5 29.99R  

 
 
KYZ035>037-039>044-047>052-055>060-089>105-230900-  
NORTHEAST KENTUCKY  
 
CITY SKY/WX TMP DP RH WIND PRES REMARKS
 
LEXINGTON CLOUDY 70 67 90 NW6 29.98S  
COVINGTON MOCLDY 68 62 81 N9 29.98S  
FRANKFORT CLOUDY 71 67 87 NW3 29.97S  

 
 
KYZ054-064>069-076>088-106>120-230900-  
SOUTHEAST KENTUCKY  
 
CITY SKY/WX TMP DP RH WIND PRES REMARKS
 
JACKSON CLOUDY 70 68 93 W5 29.97F  
LONDON CLOUDY 70 69 97 W5 29.98S  
SOMERSET NOT AVBL  
MIDDLESBORO CLOUDY 71 71 100 CALM 29.97S  
MONTICELLO CLOUDY 71 70 96 NW7 30.00F  

 
 
 
 
CLICK HERE TO GO TO PREVIOUS BULLETINS.

The Nexlab KY Page Main Text Page